Find Starlink 11611

NORAD ID: 63138 Int'l Des: 2025-043 Owner: SPXS Country: US Constellation: starlink operational
別名: STARLINK-11611 [DTC] celestrak
LEOCIRCULAR

現在のビュー

3D地球を読み込み中...

About Starlink 11611

Starlink 11611 (NORAD 63138) is a starlink constellation satellite (v2 mini d2c) launched Mar 3, 2025 by SPXS of US. It operates in LEO, CIRCULAR orbit with a mass of 960.00 kg.

次回通過

Passes for default location (London). Set your location on the main map for personalized predictions.

高度履歴

Loading altitude history...

軌道要素

1 63138U 25043G 26263.63712742 .00131710 00000-0 10111-2 0 9995
2 63138 42.9981 155.5197 0001035 285.0436 75.0317 15.70903743 90131
Epoch: Sep 20, 2026 • Age: 5 hours

現在のステータス

高度 355.5 km
遠地点 / 近地点 N/A
速度 7.70 km/s
衛星直下点 18.52°N, 124.23°W
打ち上げ日 Mar 3, 2025
運用期間 1.5 years
タイプ internet

技術仕様

分類 Payload
質量 960.00 kg
乾燥質量 910.00 kg
長さ 0.30 m
スパン 29.00 m
形状 ? Box + pan
製造者 SPXS
バスタイプ Starlink V2MD
フェーズステータス In Orbit
所有者/国 SPXS/US

Most Searched